This is the latest recevied weather packets stored in our database for station/object IU5GBO-13. If no packets are shown the sender has not sent any weather packets the latest 1 day(s).
| Time | Temp. | Humidity | Pressure | Rain* | Wind** | Luminosity | Snow |
|---|---|---|---|---|---|---|---|
| 1778046379 | 16.67° C | 83% | 1012.7 hPa | - | - | - | - |
| 1778045779 | 16.67° C | 83% | 1012.5 hPa | - | - | - | - |
| 1778043980 | 16.11° C | 86% | 1012.2 hPa | - | - | - | - |
| 1778043379 | 16.11° C | 85% | 1012.2 hPa | - | - | - | - |
| 1778042780 | 16.11° C | 85% | 1012.1 hPa | - | - | - | - |
| 1778042194 | 16.11° C | 85% | 1012.1 hPa | - | - | - | - |
| 1778041579 | 16.11° C | 85% | 1012 hPa | - | - | - | - |
| 1778041268 | 16.11° C | 85% | 1012 hPa | - | - | - | - |
| 1778040380 | 16.11° C | 85% | 1012.2 hPa | - | - | - | - |
| 1778039180 | 16.11° C | 84% | 1012.1 hPa | - | - | - | - |
| 1778037981 | 15.56° C | 84% | 1011.8 hPa | - | - | - | - |
| 1778037382 | 15.56° C | 83% | 1011.9 hPa | - | - | - | - |
| 1778034980 | 15.56° C | 83% | 1012.5 hPa | - | - | - | - |
| 1778034384 | 15.56° C | 84% | 1012.6 hPa | - | - | - | - |
| 1778033779 | 16.11° C | 84% | 1012.5 hPa | - | - | - | - |
| 1778033179 | 16.11° C | 84% | 1012.7 hPa | - | - | - | - |
| 1778032579 | 16.11° C | 84% | 1012.8 hPa | - | - | - | - |
| 1778031431 | 16.67° C | 85% | 1012.7 hPa | - | - | - | - |
| 1778030861 | 16.67° C | 84% | 1012.6 hPa | - | - | - | - |
| 1778030180 | 16.67° C | 82% | 1012.5 hPa | - | - | - | - |
| 1778028379 | 16.67° C | 76% | 1013 hPa | - | - | - | - |
| 1778027779 | 17.22° C | 74% | 1013.1 hPa | - | - | - | - |
| 1778026580 | 16.67° C | 74% | 1013.4 hPa | - | - | - | - |
| 1778025980 | 16.67° C | 74% | 1013.4 hPa | - | - | - | - |
| 1778025379 | 16.67° C | 76% | 1013.5 hPa | - | - | - | - |
* Rain since midnight (hover to see other rain measurements)
** Current wind speed in m/s (hover to see current wind gust speed)